Regional Weather Roundup
Issued by NWS

Home | Current Version | Previous Version | Graphics & Text | Print | Product List | Glossary On
Versions: 1 2 3 4 5 6 7 8 9 10 11 12 13 14 15 16 17 18 19 20 21 22 23 24 25 26 27 28 29 30 31 32 33 34 35 36 37 38 39 40 41 42 43 44 45 46 47 48 49 50
000
ASUS43 KDMX 010207
RWRIA

WEATHER ROUNDUP FOR IOWA
NATIONAL WEATHER SERVICE DES MOINES IA
900 PM CDT TUE JUN 30 2015

NOTE: "FAIR" INDICATES FEW OR NO CLOUDS BELOW 12,000 FEET WITH NO
SIGNIFICANT WEATHER AND/OR OBSTRUCTIONS TO VISIBILITY.

* - THESE STATIONS ARE NOT NWS STATIONS...THUS NOT UNDER NWS
QUALITY CONTROL.  THEY ALSO DO NOT REPORT WEATHER SUCH
AS PRECIPITATION OR FOG.

IAZ001>003-012>014-020>022-031>034-043>046-010300-
   NORTHWEST IOWA

CITY           SKY/WX    TMP DP  RH WIND       PRES   REMARKS
CARROLL *      MOCLDY    73  68  83 CALM      29.90R
CHEROKEE *     CLOUDY    72  70  94 CALM      29.89F FOG
DENISON *      CLOUDY    70  68  94 CALM      29.88S
LE MARS *      PTCLDY    70  70 100 CALM      29.91R FOG
ORANGE CITY *  CLEAR     70  64  83 CALM      29.90S
SHELDON *      CLOUDY    72  72 100 E8        29.91R
SIOUX CITY     LGT RAIN  71  66  84 E7        29.89S
SPENCER        CLOUDY    71  63  75 E8        29.92S
STORM LAKE *   CLOUDY    72  66  83 CALM      29.92S
$$

IAZ055>058-069>071-079>083-090>094-010300-
   SOUTHWEST IOWA

CITY           SKY/WX    TMP DP  RH WIND       PRES   REMARKS
ATLANTIC *     MOCLDY    70  68  94 NE6       29.89F
AUDUBON *      LGT RAIN  70  66  88 CALM      29.91F
CLARINDA *     MOCLDY    73  66  78 CALM      29.91S
COUNCIL BLFS * PTCLDY    72  66  83 SE3       29.90S
CRESTON *      LGT RAIN  72  68  88 N7        29.92R
HARLAN  *      CLOUDY    72  72 100 CALM      29.92S
LAMONI         LGT RAIN  74  70  87 S3        29.89F
RED OAK *      CLOUDY    72  68  88 CALM      29.90R
SHENANDOAH *   PTCLDY    75  66  73 E3        29.89S
$$

IAZ047>049-059>061-072>074-084-010300-
   CENTRAL IOWA

CITY           SKY/WX    TMP DP  RH WIND       PRES   REMARKS
AMES           CLOUDY    72  64  76 NE5       29.89S
ANKENY *       CLEAR     73  68  83 CALM      29.88S
CHARITON *     PTCLDY    73  68  83 CALM      29.89S
DES MOINES     CLOUDY    77  64  64 N3        29.88S
GRINNELL*      CLOUDY    70  66  88 CALM      29.90S
KNOXVILLE *    PTCLDY    73  68  83 CALM      29.88R
MARSHALLTOWN   CLOUDY    71  68  90 N5        29.89R
PELLA *        CLOUDY    72  70  94 CALM      29.90R
PERRY *        MOCLDY    73  68  83 CALM      29.89S
$$

IAZ004>006-015-016-023>025-035-036-010300-
   NORTH CENTRAL IOWA

CITY           SKY/WX    TMP DP  RH WIND       PRES   REMARKS
ALGONA *       PTCLDY    70  63  78 NE5       29.92S
CLARION *      PTCLDY    70  64  83 N6        29.92R
ESTHERVILLE    CLOUDY    67  62  84 NE5       29.92S
FORT DODGE *   CLOUDY    70  63  78 NE3       29.92R
MASON CITY     MOCLDY    67  63  87 NE8       29.94R
FOREST CITY *  CLEAR     68  61  77 NE5       29.93R
IOWA FALLS *     N/A     70  64  83 N3        29.92R
$$

IAZ007>011-017>019-026>030-037>042-050>054-066-010300-
   NORTHEAST IOWA

CITY           SKY/WX    TMP DP  RH WIND       PRES   REMARKS
CEDAR RAPIDS   PTCLDY    72  65  78 NE13      29.88R
CHARLES CITY * CLEAR     66  63  88 NE5       29.93S
CLINTON *      PTCLDY    66  61  82 N7        29.90R
DECORAH *        N/A    N/A N/A N/A MISG        N/A
DUBUQUE        PTCLDY    65  59  81 N7        29.90R
MONTICELLO *   CLEAR     68  68 100 CALM      29.89R
OELWEIN *        N/A     66  63  88 N6        29.92R
WATERLOO       MOCLDY    67  62  84 NE5       29.90R
$$

IAZ064-065-067-068-078-010300-
   EAST CENTRAL IOWA

CITY           SKY/WX    TMP DP  RH WIND       PRES   REMARKS
DAVENPORT      MOCLDY    68  63  84 NE5       29.88R
IOWA CITY      MOCLDY    74  64  71 N3        29.88R
MT. PLEASANT * CLOUDY    75  64  69 NW3       29.88R
MUSCATINE *    CLOUDY    73  70  88 CALM      29.86S
QUAD CITIES    MOCLDY    75  61  61 NE3       29.86R
$$

IAZ062-063-075>077-085>089-095>099-010300-
   SOUTHEAST IOWA

CITY           SKY/WX    TMP DP  RH WIND       PRES   REMARKS
BURLINGTON     MOCLDY    73  69  87 NW5       29.87R
FAIRFIELD *    CLEAR     72  68  88 W3        29.88S
FORT MADISON * CLEAR     72  70  94 W3        29.88S
KEOKUK *       CLEAR     73  70  88 NW3       29.86F
OSKALOOSA *      N/A     72  68  88 CALM      29.89S
CENTERVILLE *  CLEAR     72  68  88 CALM      29.90F
OTTUMWA        CLOUDY    72  68  87 CALM      29.87R
WASHINGTON *   CLEAR     72  68  88 W3        29.89R
$$

ABBREVIATIONS USED IN REMARKS
   TC - TEMPERATURES IN CELSIUS
  WCI - WIND CHILL INDEX
   HX - HEAT INDEX
  VSB - VISIBILITY
$$




USA.gov is the U.S. government's official web portal to all federal, state and local government web resources and services.